User: anonymous   Login
Location: Albany
(35.0000°S, 118.0000°E)
Time: 02:45:27
(UTC-04:00)
Language:

Centaur D-1AR AC-48 - Orbit

View from above orbital plane
View from above orbital plane
View from above satellite
View from above satellite

Ground track
Ground track

The orbit data is extracted from the following two-line orbital elements,

1 10779U 78035B   18116.01651522 -.00000062 +00000-0 +72482-3 0  9991
2 10779 021.7099 320.8754 7180687 206.7011 099.5031 02.22652976325612
Epoch (UTC): 26 April 2018 00:23:46
Eccentricity: 0.7180687
inclination: 21.7099°
perigee height: 606 km
apogee height: 36183 km
right ascension of ascending node: 320.8754°
argument of perigee: 206.7011°
revolutions per day: 2.22652976
mean anomaly at epoch: 99.5031°
orbit number at epoch: 32561

The dashed part of the orbit path shows where the satellite is in the earth's shadow,  

DLR